DW3390 Weather Reports


Display with metric or nautical units.
time (UTC)temp
F
wind
direction
speed
MPH
gust
MPH
rain 1hr
in
rain 24hr
in
rain mn
in
humidity
%
barometer
mb
20260508060510 47 155 0.0 0.0 0.00 0.00 0.00 87 1014.0
20260508060016 47 163 0.0 0.0 0.00 0.00 0.00 87 1013.9
20260508055506 47 163 0.0 0.0 0.00 0.00 0.00 87 1013.9
20260508055009 47 163 0.0 0.0 0.00 0.00 0.00 87 1013.9
20260508054506 47 163 0.0 0.0 0.00 0.00 0.00 87 1013.9
20260508054003 47 175 0.0 0.0 0.00 0.00 0.00 87 1013.7
20260508053502 47 154 0.0 5.0 0.00 0.00 0.00 87 1013.7
20260508053002 47 152 0.0 5.0 0.00 0.00 0.00 87 1013.7
20260508052601 47 167 0.0 0.0 0.00 0.00 0.00 87 1013.7
20260508052059 47 167 0.0 0.0 0.00 0.00 0.00 87 1013.7
20260508052003 47 150 0.0 0.0 0.00 0.00 0.00 87 1013.7
20260508051559 47 150 0.0 0.0 0.00 0.00 0.00 87 1013.7
20260508051058 47 150 0.0 0.0 0.00 0.00 0.00 87 1013.7
20260508050558 47 150 0.0 0.0 0.00 0.00 0.00 87 1013.7
20260508050058 47 148 0.0 0.0 0.00 0.00 0.00 87 1013.7
20260508045556 47 148 0.0 0.0 0.00 0.00 0.00 86 1013.7
20260508045056 47 148 0.0 0.0 0.00 0.00 0.00 86 1013.7
20260508044600 47 148 0.0 0.0 0.00 0.00 0.00 86 1013.6
20260508044055 47 148 0.0 0.0 0.00 0.00 0.00 86 1013.7
20260508043554 47 148 0.0 0.0 0.00 0.00 0.00 85 1013.7
20260508043053 47 148 0.0 0.0 0.00 0.00 0.00 85 1013.7
20260508042553 47 148 0.0 0.0 0.00 0.00 0.00 85 1013.7
20260508042054 47 148 0.0 0.0 0.00 0.00 0.00 84 1013.7
20260508041552 47 148 0.0 0.0 0.00 0.00 0.00 84 1013.7
20260508041052 47 148 0.0 0.0 0.00 0.00 0.00 84 1013.6
20260508040552 47 148 0.0 0.0 0.00 0.00 0.00 84 1013.6
20260508040057 47 148 0.0 0.0 0.00 0.00 0.00 83 1013.6
20260508035550 47 148 0.0 0.0 0.00 0.00 0.00 83 1013.5
20260508035050 47 148 0.0 0.0 0.00 0.00 0.00 83 1013.5
20260508034550 48 148 0.0 0.0 0.00 0.00 0.00 83 1013.6
20260508034049 48 150 0.0 0.0 0.00 0.00 0.00 83 1013.6
20260508033549 48 150 0.0 0.0 0.00 0.00 0.00 83 1013.6
20260508033111 48 150 0.0 0.0 0.00 0.00 0.00 83 1013.6
20260508032548 48 150 0.0 0.0 0.00 0.00 0.00 82 1013.6
20260508032051 48 150 0.0 0.0 0.00 0.00 0.00 82 1013.6
20260508031547 48 150 0.0 0.0 0.00 0.00 0.00 82 1013.6
20260508031051 48 150 0.0 0.0 0.00 0.00 0.00 82 1013.6
20260508030547 48 150 0.0 0.0 0.00 0.00 0.00 82 1013.7
20260508030100 48 150 0.0 0.0 0.00 0.00 0.00 82 1013.6
20260508025546 48 150 0.0 0.0 0.00 0.00 0.00 82 1013.5
20260508025046 48 150 0.0 0.0 0.00 0.00 0.00 82 1013.6
20260508024608 48 150 0.0 0.0 0.00 0.00 0.00 82 1013.7
20260508024048 48 150 0.0 0.0 0.00 0.00 0.00 82 1013.7
20260508023546 48 150 0.0 0.0 0.00 0.00 0.00 82 1013.7
20260508023045 49 150 0.0 0.0 0.00 0.00 0.00 81 1013.7
20260508022544 49 150 0.0 0.0 0.00 0.00 0.00 81 1013.7
20260508022044 49 152 0.0 0.0 0.00 0.00 0.00 82 1013.7
20260508021544 49 152 0.0 0.0 0.00 0.00 0.00 81 1013.7
20260508021042 49 152 0.0 0.0 0.00 0.00 0.00 81 1013.7
20260508020542 49 152 0.0 0.0 0.00 0.00 0.00 81 1013.6
20260508020100 49 153 0.0 0.0 0.00 0.00 0.00 81 1013.7
20260508015542 49 153 0.0 1.0 0.00 0.00 0.00 81 1013.7
20260508015041 49 153 0.0 1.0 0.00 0.00 0.00 81 1013.7
20260508014543 49 153 0.0 0.0 0.00 0.00 0.00 81 1013.6
20260508014040 49 153 0.0 0.0 0.00 0.00 0.00 81 1013.6
20260508013540 49 153 0.0 0.0 0.00 0.00 0.00 80 1013.6
20260508013039 50 153 0.0 0.0 0.00 0.00 0.00 80 1013.7
20260508012539 50 153 0.0 0.0 0.00 0.00 0.00 80 1013.7
20260508012038 50 153 0.0 0.0 0.00 0.00 0.00 80 1013.7
20260508011543 50 153 0.0 0.0 0.00 0.00 0.00 80 1013.7
20260508011038 50 153 0.0 0.0 0.00 0.00 0.00 80 1013.7
20260508010536 50 153 0.0 0.0 0.00 0.00 0.00 80 1013.7
20260508010038 50 153 0.0 0.0 0.00 0.00 0.00 80 1013.8
20260508005535 50 153 0.0 0.0 0.00 0.00 0.00 80 1013.8
20260508005035 50 153 0.0 0.0 0.00 0.00 0.00 79 1013.8
20260508004535 50 153 0.0 3.0 0.00 0.00 0.00 79 1013.8
20260508004035 51 153 0.0 3.0 0.00 0.00 0.00 79 1013.7
20260508003535 51 197 0.0 0.0 0.00 0.00 0.00 79 1013.8
20260508003034 51 200 0.0 0.0 0.00 0.00 0.00 79 1013.9
20260508002532 51 197 0.0 0.0 0.00 0.00 0.00 79 1013.9
20260508002034 51 182 0.0 0.0 0.00 0.00 0.00 79 1013.9
20260508001545 51 182 0.0 0.0 0.00 0.00 0.00 78 1013.9
20260508001031 51 134 0.0 1.0 0.00 0.00 0.00 78 1013.9
20260508000532 51 136 0.0 2.0 0.00 0.00 0.00 78 1013.9
20260508000030 51 137 0.0 3.0 0.00 0.00 0.00 78 1013.8
20260507235533 52 138 0.0 2.0 0.00 0.00 0.00 77 1013.8
20260507235032 52 140 0.0 0.0 0.00 0.00 0.00 77 1013.9
20260507234529 52 139 0.0 0.0 0.00 0.00 0.00 77 1013.9
20260507234028 52 139 0.0 0.0 0.00 0.00 0.00 77 1013.9
20260507233529 52 139 0.0 1.0 0.00 0.00 0.00 77 1013.9
20260507233032 52 140 0.0 3.0 0.00 0.00 0.00 76 1013.9
20260507232527 52 140 0.0 3.0 0.00 0.00 0.00 76 1013.9
20260507232028 52 159 0.0 0.0 0.00 0.00 0.00 76 1014.0
20260507231525 52 163 0.0 0.0 0.00 0.00 0.00 76 1013.9
20260507231024 52 163 0.0 0.0 0.00 0.00 0.00 75 1013.9
20260507230524 53 162 0.0 0.0 0.00 0.00 0.00 75 1013.9
20260507230031 53 170 0.0 0.0 0.00 0.00 0.00 75 1013.9
20260507225524 53 170 0.0 1.0 0.00 0.00 0.00 75 1013.9
20260507225023 53 171 0.0 3.0 0.00 0.00 0.00 75 1014.0
20260507224529 53 175 0.0 3.0 0.00 0.00 0.00 75 1014.0
20260507224022 53 172 0.0 2.0 0.00 0.00 0.00 74 1014.1
20260507223523 53 172 0.0 2.0 0.00 0.00 0.00 74 1014.1
20260507223022 53 172 0.0 2.0 0.00 0.00 0.00 74 1014.1
20260507222524 53 173 0.0 1.0 0.00 0.00 0.00 73 1014.1
20260507222021 53 173 0.0 3.0 0.00 0.00 0.00 73 1014.1
20260507221525 53 173 0.0 3.0 0.00 0.00 0.00 72 1014.1
20260507221022 53 173 0.0 1.0 0.00 0.00 0.00 72 1014.1
20260507220521 53 173 0.0 2.0 0.00 0.00 0.00 71 1014.1
20260507220021 53 173 0.0 2.0 0.00 0.00 0.00 71 1014.1
20260507215521 53 175 0.0 2.0 0.00 0.00 0.00 70 1014.0
20260507215021 53 175 0.0 2.0 0.00 0.00 0.00 70 1014.0
20260507214521 53 175 0.0 0.0 0.00 0.00 0.00 69 1014.0
20260507214021 53 175 0.0 0.0 0.00 0.00 0.00 69 1013.9
20260507213521 53 175 0.0 2.0 0.00 0.00 0.00 69 1014.0
20260507213020 53 185 0.0 1.0 0.00 0.00 0.00 69 1013.9
20260507212521 53 186 0.0 1.0 0.00 0.00 0.00 70 1013.7
20260507212024 53 187 0.0 0.0 0.00 0.00 0.00 70 1013.7
20260507211531 53 187 0.0 0.0 0.00 0.00 0.00 69 1013.7
20260507211019 53 187 0.0 0.0 0.00 0.00 0.00 70 1013.7
20260507210519 53 187 0.0 0.0 0.00 0.00 0.00 69 1013.6
20260507210019 53 187 0.0 0.0 0.00 0.00 0.00 70 1013.5
20260507205519 54 187 0.0 0.0 0.00 0.00 0.00 69 1013.6
20260507205022 54 187 0.0 0.0 0.00 0.00 0.00 69 1013.5
20260507204519 54 187 0.0 0.0 0.00 0.00 0.00 68 1013.5
20260507204023 54 187 0.0 0.0 0.00 0.00 0.00 68 1013.4
20260507203519 54 187 0.0 0.0 0.00 0.00 0.00 67 1013.4
20260507203019 54 187 0.0 0.0 0.00 0.00 0.00 67 1013.4
20260507202518 55 187 0.0 0.0 0.00 0.00 0.00 66 1013.3
20260507202018 55 187 0.0 0.0 0.00 0.00 0.00 66 1013.2
20260507201530 55 187 0.0 0.0 0.00 0.00 0.00 66 1013.2
20260507201018 55 187 0.0 0.0 0.00 0.00 0.00 66 1013.1
20260507200518 55 186 0.0 0.0 0.00 0.00 0.00 66 1013.1
20260507200021 55 186 0.0 0.0 0.00 0.00 0.00 65 1013.0
20260507195519 55 186 0.0 0.0 0.00 0.00 0.00 64 1012.9
20260507195017 55 203 0.0 0.0 0.00 0.00 0.00 64 1012.9
20260507194517 55 203 0.0 0.0 0.00 0.00 0.00 64 1012.9
20260507194016 56 217 0.0 0.0 0.00 0.00 0.00 63 1012.8
20260507193516 56 261 0.0 0.0 0.00 0.00 0.00 63 1012.8
20260507193020 56 265 0.0 3.0 0.00 0.00 0.00 63 1012.8
20260507192516 56 164 0.0 3.0 0.00 0.00 0.00 62 1012.8
20260507192016 56 141 0.0 3.0 0.00 0.00 0.00 61 1012.8
20260507191522 56 136 0.0 3.0 0.00 0.00 0.00 60 1012.7
20260507191014 56 155 0.0 3.0 0.00 0.00 0.00 60 1012.7
20260507190515 56 147 0.0 3.0 0.00 0.00 0.00 60 1012.7
20260507190016 56 159 0.0 1.0 0.00 0.00 0.00 60 1012.7
20260507185514 56 317 0.0 3.0 0.00 0.00 0.00 59 1012.7
20260507185017 56 146 0.0 3.0 0.00 0.00 0.00 59 1012.7
20260507184515 57 164 0.0 5.0 0.00 0.00 0.00 59 1012.7
20260507184016 57 131 0.0 5.0 0.00 0.00 0.00 58 1012.6
20260507183515 57 131 0.0 4.0 0.00 0.00 0.00 58 1012.6
20260507183014 57 162 0.0 4.0 0.00 0.00 0.00 57 1012.6
20260507182514 57 162 0.0 3.0 0.00 0.00 0.00 57 1012.6
20260507182015 57 150 0.0 2.0 0.00 0.00 0.00 56 1012.6
20260507181513 57 144 0.0 1.0 0.00 0.00 0.00 56 1012.5
20260507181013 57 172 0.0 3.0 0.00 0.00 0.00 53 1012.5
20260507180514 58 151 0.0 3.0 0.00 0.00 0.00 51 1012.5
20260507180033 58 143 0.0 2.0 0.00 0.00 0.00 51 1012.4
20260507175514 58 148 0.0 2.0 0.00 0.00 0.00 51 1012.4
20260507175015 58 149 0.0 2.0 0.00 0.00 0.00 51 1012.5
20260507174519 58 160 0.0 2.0 0.00 0.00 0.00 51 1012.4
20260507174012 58 169 0.0 2.0 0.00 0.00 0.00 51 1012.5
20260507173514 58 87 0.0 1.0 0.00 0.00 0.00 50 1012.3
20260507173018 58 153 0.0 1.0 0.00 0.00 0.00 50 1012.4
20260507172511 58 122 0.0 1.0 0.00 0.00 0.00 51 1012.4
20260507172010 58 146 0.0 2.0 0.00 0.00 0.00 51 1012.4
20260507171510 58 142 0.0 1.0 0.00 0.00 0.00 50 1012.5
20260507171014 58 144 0.0 1.0 0.00 0.00 0.00 50 1012.5
20260507170510 58 116 0.0 1.0 0.00 0.00 0.00 51 1012.5
20260507170028 58 121 0.0 1.0 0.00 0.00 0.00 51 1012.4
20260507165509 58 40 0.0 2.0 0.00 0.00 0.00 51 1012.5
20260507165009 58 46 0.0 2.0 0.00 0.00 0.00 50 1012.6
20260507164509 58 166 0.0 2.0 0.00 0.00 0.00 50 1012.6
20260507164009 58 103 0.0 2.0 0.00 0.00 0.00 50 1012.5
20260507163509 59 135 0.0 1.0 0.00 0.00 0.00 49 1012.5
20260507163008 59 50 0.0 1.0 0.00 0.00 0.00 49 1012.6
20260507162509 59 146 0.0 1.0 0.00 0.00 0.00 49 1012.6
20260507162008 59 135 0.0 1.0 0.00 0.00 0.00 49 1012.6
20260507161508 59 126 0.0 1.0 0.00 0.00 0.00 48 1012.7
20260507161007 59 115 0.0 1.0 0.00 0.00 0.00 48 1012.6
20260507160507 59 170 0.0 3.0 0.00 0.00 0.00 48 1012.7
20260507160006 60 74 0.0 3.0 0.00 0.00 0.00 48 1012.6
20260507155506 60 195 0.0 2.0 0.00 0.00 0.00 48 1012.5
20260507155006 60 212 0.0 2.0 0.00 0.00 0.00 46 1012.5
20260507154508 60 136 0.0 1.0 0.00 0.00 0.00 47 1012.5
20260507154007 60 167 0.0 1.0 0.00 0.00 0.00 47 1012.5
20260507153506 61 157 0.0 1.0 0.00 0.00 0.00 46 1012.6
20260507153005 61 96 0.0 1.0 0.00 0.00 0.00 46 1012.6
20260507152506 61 159 0.0 2.0 0.00 0.00 0.00 45 1012.6
20260507152005 62 134 0.0 9.0 0.00 0.00 0.00 46 1012.6
20260507151504 62 233 0.0 9.0 0.00 0.00 0.00 45 1012.6
20260507151008 62 207 0.0 3.0 0.00 0.00 0.00 45 1012.7
20260507150504 62 121 0.0 3.0 0.00 0.00 0.00 45 1012.8
20260507150003 61 59 0.0 3.0 0.00 0.00 0.00 46 1012.8
20260507145500 61 143 0.0 5.0 0.00 0.00 0.00 46 1012.7
20260507145100 61 84 1.0 5.0 0.00 0.00 0.00 47 1012.8
20260507144600 60 87 0.0 4.0 0.00 0.00 0.00 46 1012.8
20260507144100 61 163 0.0 4.0 0.00 0.00 0.00 46 1012.8
20260507143559 61 244 0.0 1.0 0.00 0.00 0.00 46 1012.9
20260507143106 61 255 0.0 1.0 0.00 0.00 0.00 45 1012.9
20260507142557 60 144 0.0 3.0 0.00 0.00 0.00 46 1013.0
20260507142056 60 76 0.0 5.0 0.00 0.00 0.00 46 1013.0
20260507141558 60 55 0.0 5.0 0.00 0.00 0.00 48 1013.0
20260507141055 60 78 0.0 1.0 0.00 0.00 0.00 50 1013.1
20260507140555 60 82 0.0 1.0 0.00 0.00 0.00 47 1013.1
20260507140100 59 225 0.0 1.0 0.00 0.00 0.00 45 1013.1
20260507135554 59 250 0.0 1.0 0.00 0.00 0.00 46 1013.1
20260507135054 59 101 0.0 1.0 0.00 0.00 0.00 48 1013.2
20260507134554 59 53 0.0 2.0 0.00 0.00 0.00 49 1013.2
20260507134053 59 256 0.0 3.0 0.00 0.00 0.00 48 1013.2
20260507133553 60 267 0.0 8.0 0.00 0.00 0.00 47 1013.2
20260507133053 60 155 0.0 8.0 0.00 0.00 0.00 47 1013.2
20260507132552 60 126 0.0 4.0 0.00 0.00 0.00 48 1013.2
20260507132051 60 86 0.0 4.0 0.00 0.00 0.00 49 1013.2
20260507131552 59 30 0.0 3.0 0.00 0.00 0.00 51 1013.3
20260507131049 59 68 0.0 3.0 0.00 0.00 0.00 52 1013.3
20260507130548 58 57 0.0 5.0 0.00 0.00 0.00 52 1013.3
20260507130101 57 80 0.0 5.0 0.00 0.00 0.00 53 1013.4
20260507125548 57 43 0.0 3.0 0.00 0.00 0.00 52 1013.4
20260507125047 58 48 0.0 2.0 0.00 0.00 0.00 52 1013.4
20260507124555 58 163 0.0 2.0 0.00 0.00 0.00 52 1013.5
20260507124048 58 161 0.0 3.0 0.00 0.00 0.00 52 1013.5
20260507123548 58 156 0.0 3.0 0.00 0.00 0.00 53 1013.6
20260507123047 58 146 0.0 3.0 0.00 0.00 0.00 52 1013.6
20260507122546 58 172 0.0 0.0 0.00 0.00 0.00 52 1013.6
20260507122048 58 219 0.0 3.0 0.00 0.00 0.00 52 1013.6
20260507121552 59 219 0.0 3.0 0.00 0.00 0.00 51 1013.6
20260507121045 59 132 0.0 3.0 0.00 0.00 0.00 52 1013.6
20260507120545 59 161 0.0 2.0 0.00 0.00 0.00 53 1013.7
20260507120045 59 146 0.0 3.0 0.00 0.00 0.00 52 1013.7
20260507115544 60 192 0.0 3.0 0.00 0.00 0.00 53 1013.7
20260507115042 59 260 0.0 1.0 0.00 0.00 0.00 52 1013.7
20260507114541 59 64 0.0 1.0 0.00 0.00 0.00 53 1013.8
20260507114040 58 153 0.0 1.0 0.00 0.00 0.00 55 1013.7
20260507113542 58 60 0.0 5.0 0.00 0.00 0.00 54 1013.8
20260507113042 58 159 0.0 5.0 0.00 0.00 0.00 53 1013.8
20260507112542 58 159 0.0 1.0 0.00 0.00 0.00 54 1013.8
20260507112040 58 243 0.0 0.0 0.00 0.00 0.00 56 1013.9
20260507111536 57 246 0.0 2.0 0.00 0.00 0.00 53 1013.9
20260507111034 57 70 0.0 2.0 0.00 0.00 0.00 54 1014.0
20260507110533 57 111 0.0 2.0 0.00 0.00 0.00 56 1014.0
20260507110032 57 52 0.0 2.0 0.00 0.00 0.00 57 1014.1
20260507105531 57 36 0.0 6.0 0.00 0.00 0.00 58 1014.0
20260507105030 57 81 0.0 2.0 0.00 0.00 0.00 52 1014.0
20260507104531 57 124 0.0 2.0 0.00 0.00 0.00 55 1014.1
20260507104029 57 130 0.0 2.0 0.00 0.00 0.00 56 1014.1
20260507103532 56 140 0.0 2.0 0.00 0.00 0.00 58 1014.1
20260507103031 56 28 0.0 2.0 0.00 0.00 0.00 60 1014.2
20260507102526 55 132 0.0 1.0 0.00 0.00 0.00 60 1014.1
20260507102024 55 108 0.0 2.0 0.00 0.00 0.00 61 1014.2
20260507101523 55 55 0.0 3.0 0.00 0.00 0.00 66 1014.2
20260507101024 55 165 0.0 3.0 0.00 0.00 0.00 65 1014.2
20260507100520 54 178 0.0 3.0 0.00 0.00 0.00 65 1014.2
20260507100019 54 154 0.0 7.0 0.00 0.00 0.00 67 1014.2
20260507095519 54 53 0.0 7.0 0.00 0.00 0.00 69 1014.3
20260507095018 54 141 0.0 4.0 0.00 0.00 0.00 71 1014.2
20260507094517 53 241 0.0 2.0 0.00 0.00 0.00 74 1014.2
20260507094015 53 162 0.0 3.0 0.00 0.00 0.00 74 1014.3
20260507093517 52 150 0.0 4.0 0.00 0.00 0.00 73 1014.3
20260507093015 52 146 0.0 4.0 0.00 0.00 0.00 73 1014.3
20260507092511 52 227 0.0 3.0 0.00 0.00 0.00 75 1014.3
20260507092011 51 209 0.0 5.0 0.00 0.00 0.00 76 1014.3
20260507091510 51 147 0.0 3.0 0.00 0.00 0.00 77 1014.3
20260507091009 51 215 0.0 3.0 0.00 0.00 0.00 77 1014.4
20260507090507 51 194 0.0 3.0 0.00 0.00 0.00 78 1014.3
20260507090006 51 188 0.0 2.0 0.00 0.00 0.00 80 1014.3
20260507085505 50 25 0.0 5.0 0.00 0.00 0.00 80 1014.3
20260507085007 50 275 1.0 5.0 0.00 0.00 0.00 81 1014.4
20260507084510 49 130 0.0 4.0 0.00 0.00 0.00 82 1014.4
20260507084001 49 140 0.0 4.0 0.00 0.00 0.00 84 1014.5
20260507083601 48 271 0.0 3.0 0.00 0.00 0.00 85 1014.4
20260507083058 48 269 0.0 4.0 0.00 0.00 0.00 85 1014.4
20260507082556 48 239 1.0 4.0 0.00 0.00 0.00 86 1014.4
20260507082055 47 142 0.0 2.0 0.00 0.00 0.00 88 1014.4
20260507081558 47 140 0.0 3.0 0.00 0.00 0.00 88 1014.4
20260507081053 46 140 0.0 4.0 0.00 0.00 0.00 89 1014.4
20260507080553 46 144 0.0 4.0 0.00 0.00 0.00 90 1014.4
20260507080054 46 143 1.0 4.0 0.00 0.00 0.00 90 1014.3
20260507075550 46 154 1.0 4.0 0.00 0.00 0.00 91 1014.4
20260507075049 45 155 1.0 4.0 0.00 0.00 0.00 92 1014.4
20260507074548 45 59 0.0 3.0 0.00 0.00 0.00 94 1014.4
20260507074046 44 180 0.0 3.0 0.00 0.00 0.00 94 1014.3
20260507073546 44 205 0.0 2.0 0.00 0.00 0.00 94 1014.3
20260507073045 44 200 0.0 0.0 0.00 0.00 0.00 94 1014.3
20260507072544 44 200 0.0 0.0 0.00 0.00 0.00 94 1014.3
20260507072043 44 200 0.0 1.0 0.00 0.00 0.00 93 1014.3
20260507071545 44 200 0.0 2.0 0.00 0.00 0.00 94 1014.2
20260507071042 43 200 0.0 2.0 0.00 0.00 0.00 94 1014.3
20260507070541 43 202 0.0 3.0 0.00 0.00 0.00 94 1014.2
20260507070059 43 202 0.0 3.0 0.00 0.00 0.00 94 1014.2
20260507065540 43 143 0.0 3.0 0.00 0.00 0.00 94 1014.2
20260507065038 43 144 0.0 3.0 0.00 0.00 0.00 94 1014.2
20260507064548 43 143 0.0 2.0 0.00 0.00 0.00 94 1014.1
20260507064037 43 142 0.0 3.0 0.00 0.00 0.00 94 1014.2
20260507063537 42 142 1.0 3.0 0.00 0.00 0.00 94 1014.2
20260507063037 42 154 0.0 2.0 0.00 0.00 0.00 94 1014.1
20260507062535 42 165 0.0 3.0 0.00 0.00 0.00 94 1014.1
20260507062035 42 165 1.0 3.0 0.00 0.00 0.00 94 1014.1
20260507061535 42 154 1.0 3.0 0.00 0.00 0.00 94 1014.0
20260507061033 42 150 0.0 2.0 0.00 0.00 0.00 94 1014.0